Wind_Speed
67 61 61 58 54 54 56 55 50 52 46 44 40 35 34 35 33 38 31 34 28 32 33 34 37 37 37 35 34 33 34 32 30 29 27 26 26 29 29 29 29 31 33 32 34 34 35 35 36
73 69 66 62 55 57 59 55 53 58 54 51 44 43 39 39 35 41 37 38 34 36 36 38 40 40 39 38 37 37 37 37 34 33 31 29 27 28 31 31 30 31 34 35 36 38 39 39 40
79 76 67 61 65 68 61 65 61 63 59 55 53 52 46 40 40 40 41 44 41 42 39 41 42 41 41 40 40 40 40 41 39 38 35 33 29 29 31 33 33 34 32 35 38 39 41 41 43
84 82 78 70 70 76 71 67 69 65 61 59 56 57 53 47 45 44 40 45 46 47 44 42 44 44 44 44 43 43 44 43 43 42 38 37 34 31 31 33 35 35 34 37 38 40 41 40 42
81 85 81 75 77 76 74 72 71 70 68 67 60 61 62 57 51 51 51 49 48 54 50 45 46 48 48 46 47 47 46 46 45 44 41 40 40 37 35 34 35 35 35 38 39 42 42 42 43
83 81 78 74 78 80 81 80 75 76 74 73 72 62 62 61 57 55 54 58 56 56 59 54 50 50 51 51 50 51 50 48 48 47 47 47 43 38 37 37 37 37 40 41 42 44 45 46 47
90 88 83 76 82 81 91 86 81 79 79 79 77 74 72 66 65 59 59 60 64 61 60 59 58 56 54 54 52 51 52 52 52 51 49 46 43 40 40 38 37 39 41 44 47 49 49 47 49
97 86 88 84 82 88 99 97 83 85 82 83 82 79 78 69 69 66 63 64 66 67 65 63 64 61 58 57 56 53 53 52 50 49 48 47 45 43 42 42 42 42 44 46 48 50 50 50 51
102 95 85 100 91 93 101 96 91 94 91 89 84 83 80 76 76 71 72 69 68 69 69 68 68 67 63 60 59 58 54 53 53 52 51 49 48 48 46 45 45 47 47 49 50 51 49 49 48
101 101 105 100 95 101 106 102 103 94 92 90 93 87 90 85 79 78 77 73 75 75 75 72 69 72 67 65 60 58 59 56 54 53 53 54 51 52 51 51 49 51 51 52 53 53 51 50 50
108 100 109 112 108 101 107 109 110 99 93 92 91 92 94 93 88 83 82 78 76 79 78 77 75 73 71 72 72 66 63 61 60 57 57 55 55 57 58 57 56 54 53 53 56 56 56 55 52
108 110 111 118 115 114 112 115 114 108 94 99 99 104 100 96 94 91 88 85 80 81 82 80 81 82 80 78 76 74 70 69 66 65 63 62 62 60 58 59 57 56 54 57 58 60 61 57 51
92 103 105 114 114 113 116 116 119 117 119 114 104 105 110 104 100 98 97 92 91 87 90 90 86 85 84 84 81 79 77 74 72 72 70 69 68 65 64 63 62 60 61 62 60 59 55 57 56
92 93 98 103 117 120 117 120 125 122 125 123 122 118 113 106 106 106 99 99 96 94 94 96 95 94 89 86 84 82 82 81 78 77 79 77 75 73 71 68 67 68 65 64 66 68 66 66 65
87 88 90 92 99 105 111 114 111 113 122 131 130 126 131 119 110 107 104 108 105 100 95 100 98 100 96 91 91 90 86 84 81 79 83 83 84 82 75 75 75 71 71 71 70 68 67 67 66
81 84 88 93 99 104 109 104 104 111 115 121 129 128 135 130 126 123 108 109 110 105 105 103 105 104 101 99 93 93 92 91 91 87 81 83 85 83 82 80 77 76 74 70 70 70 69 70 67
86 85 85 89 96 101 107 98 101 109 114 115 119 120 125 130 123 127 122 126 115 110 107 108 109 107 108 106 104 101 96 94 93 91 86 88 88 88 84 82 83 79 75 74 75 76 74 73 68
84 85 87 89 97 101 101 97 99 106 111 110 110 111 111 110 111 108 114 121 122 119 120 115 113 115 113 110 108 105 102 100 99 100 98 98 94 96 90 88 86 82 81 81 78 73 72 75 71
57 70 82 91 99 102 104 102 99 105 109 109 110 111 109 109 108 110 106 107 114 120 129 128 127 125 117 106 113 115 109 109 100 99 88 98 88 85 87 89 85 83 83 79 79 76 73 67 68
53 56 59 66 79 92 95 106 106 111 112 112 110 111 111 111 111 111 110 109 107 106 117 122 128 120 120 123 115 114 105 107 100 96 91 87 101 97 94 92 94 89 83 82 77 69 66 65 62
47 55 59 65 74 78 91 101 106 113 113 119 116 115 114 115 118 118 114 110 107 102 101 109 124 120 117 117 123 108 108 100 95 108 96 96 101 98 97 101 95 88 78 80 82 78 72 63 67
37 49 53 57 67 80 96 94 93 95 108 120 119 120 121 119 117 115 113 109 104 101 103 103 103 105 108 106 105 105 105 98 89 97 101 100 93 100 101 88 87 88 70 62 70 73 73 61 69
48 44 49 57 67 77 79 86 76 91 93 100 112 120 122 121 121 117 111 108 105 106 104 103 102 102 107 108 109 107 105 102 100 105 100 98 100 92 80 82 89 86 82 76 69 64 65 63 69
57 49 53 60 61 66 63 75 58 74 84 93 101 106 113 121 121 121 118 115 109 106 103 103 102 103 105 105 103 101 101 101 101 101 99 98 98 90 91 93 82 80 83 82 87 81 80 76 68
66 57 58 58 56 51 59 55 42 63 75 84 96 95 95 104 112 116 118 115 111 108 109 109 107 103 103 104 103 101 98 97 96 95 96 96 94 93 89 93 82 78 70 75 87 85 85 83 75
72 63 66 57 45 45 50 46 52 57 65 69 76 84 88 94 101 110 112 110 111 112 112 112 111 108 107 108 104 99 97 96 94 94 94 94 91 89 91 94 94 92 91 86 81 75 80 81 78
76 65 69 58 43 37 44 50 50 59 60 64 60 67 79 86 91 100 108 113 113 113 113 113 112 112 110 110 108 102 100 99 96 95 94 92 92 91 91 91 90 89 91 92 89 86 78 84 80
78 67 68 54 43 35 36 45 53 52 55 64 65 60 64 73 81 90 97 103 104 102 104 109 112 111 108 108 109 106 104 102 100 98 96 93 92 91 90 88 88 87 88 89 87 82 87 84 82
77 72 64 49 46 38 33 41 52 54 56 59 65 59 59 64 69 77 84 90 96 97 97 94 94 98 105 108 108 107 104 102 101 100 98 96 94 93 91 89 88 87 85 84 83 82 88 87 90
74 72 57 46 42 39 36 38 42 52 51 47 53 56 60 58 60 67 74 81 87 94 96 96 96 95 95 97 101 104 106 105 104 103 102 99 98 94 92 90 87 85 84 83 82 83 83 85 82
Wind_Direction
232 237 238 242 248 244 248 250 250 252 248 244 247 237 242 254 243 236 227 231 231 224 227 224 224 223 226 228 233 239 242 248 254 259 267 278 284 291 297 300 301 308 309 311 311 313 315 319 324
235 236 234 237 242 242 254 254 255 257 254 249 244 245 241 245 243 236 229 230 228 233 228 227 224 224 227 228 229 237 243 247 255 258 262 271 279 287 292 293 297 300 304 308 310 312 313 318 324
234 236 232 236 243 246 250 256 250 253 248 249 252 248 242 236 239 233 229 228 232 228 232 235 229 227 230 231 232 236 240 245 251 258 261 267 273 280 285 289 293 297 300 303 307 309 311 318 323
232 234 235 234 240 250 250 250 254 250 247 252 251 251 244 237 239 232 236 231 234 232 235 241 244 240 238 239 236 237 241 246 249 251 257 263 270 273 278 284 288 292 296 302 306 311 311 318 322
233 235 237 230 238 249 242 249 251 254 249 247 248 253 249 241 236 239 237 238 237 231 237 240 242 242 243 241 242 244 243 246 251 254 258 263 269 271 271 275 284 292 297 300 305 308 311 317 320
239 236 236 239 242 244 246 251 250 252 253 250 246 247 251 247 242 237 239 242 242 238 234 235 240 241 241 241 242 244 247 247 250 255 260 263 268 269 270 274 280 289 294 298 301 305 311 315 318
241 242 239 242 239 242 247 248 249 249 249 249 251 247 246 248 244 245 245 243 244 244 242 240 236 238 241 242 242 246 246 249 249 252 258 263 265 267 270 274 281 286 289 294 299 303 306 313 315
245 241 247 245 236 244 243 245 245 247 249 249 249 249 248 239 243 245 251 249 247 244 245 246 244 238 242 247 248 245 248 252 254 255 256 257 259 263 266 274 279 284 289 292 295 300 304 309 310
239 236 240 239 243 238 243 244 247 252 251 250 250 252 251 247 241 240 248 250 249 251 248 246 249 245 245 246 251 253 252 253 256 256 257 257 259 262 266 269 275 280 284 287 291 295 301 305 307
233 235 234 236 237 237 240 247 251 250 247 251 248 248 253 251 244 244 245 249 249 251 252 251 250 249 249 252 252 253 256 257 259 262 261 262 263 267 268 271 274 278 283 285 290 293 298 302 307
233 235 235 241 233 232 238 245 245 247 246 247 245 246 248 253 248 246 244 242 248 251 252 252 252 248 247 250 253 254 255 258 260 263 264 265 267 268 270 272 274 277 281 286 289 292 295 299 305
239 238 239 241 239 239 243 245 242 242 241 243 245 246 246 248 246 247 248 251 246 246 250 251 252 253 251 248 251 253 255 256 259 261 263 265 268 270 272 273 274 278 280 282 287 292 296 302 305
243 243 241 242 241 243 245 249 247 246 245 247 241 243 244 245 249 251 249 251 249 243 246 251 251 251 251 252 251 252 254 256 259 261 263 264 265 268 270 271 274 276 279 282 287 293 296 300 296
243 245 246 245 244 246 247 246 247 249 247 247 250 243 241 243 245 245 246 248 249 246 245 247 253 252 252 250 251 253 254 254 257 262 264 266 267 268 268 271 272 274 278 280 283 286 287 288 293
249 247 247 246 246 247 247 247 250 251 249 247 249 247 245 245 241 240 243 245 246 246 247 248 252 255 253 253 253 254 255 257 257 261 263 266 268 268 270 271 273 275 276 278 283 287 286 290 289
249 248 248 249 247 246 247 246 248 251 253 251 249 248 250 254 247 249 240 241 243 243 245 245 249 252 254 254 254 256 257 258 257 260 264 265 266 267 268 269 271 273 276 278 280 282 285 288 290
251 250 249 250 251 250 250 247 250 250 252 253 252 252 252 253 253 256 248 249 254 243 241 245 248 249 251 252 252 252 254 257 259 262 261 263 265 266 265 266 270 271 272 274 277 280 284 286 288
252 252 253 252 255 252 251 247 247 249 250 251 252 251 250 251 252 255 255 254 252 251 252 243 242 246 247 251 250 252 253 256 254 259 259 258 260 265 266 268 267 267 271 273 277 279 279 283 285
255 253 251 250 251 252 253 249 248 249 251 251 250 250 248 248 250 249 252 252 252 250 248 253 253 251 245 245 246 249 250 253 256 256 254 262 258 258 263 266 269 268 268 270 274 277 278 282 282
259 257 255 251 252 252 252 252 249 247 249 250 251 252 251 247 246 247 249 249 247 248 249 251 252 253 253 253 254 247 248 252 249 252 255 258 259 258 257 262 265 268 270 270 269 271 273 278 277
265 259 256 256 257 257 255 252 251 249 246 249 250 250 251 251 248 246 245 247 248 249 249 247 249 250 254 256 257 256 253 250 251 248 249 253 259 260 262 262 267 269 268 268 271 269 272 267 274
293 269 264 265 265 262 260 256 254 252 249 247 246 248 249 249 249 248 248 247 246 248 249 250 251 251 252 251 250 252 252 252 249 251 249 249 251 257 258 262 261 265 257 265 263 267 269 262 267
317 290 281 284 277 267 265 262 253 250 250 249 246 243 246 249 250 250 248 247 246 247 247 248 250 250 251 250 250 250 250 248 249 248 249 249 250 251 247 250 258 259 257 255 254 257 259 253 255
322 304 296 294 284 273 264 260 253 252 248 247 246 243 243 245 245 248 249 248 246 246 246 247 247 246 248 250 251 249 248 247 245 245 246 247 246 249 250 251 248 251 253 252 252 253 251 258 260
325 312 307 303 290 276 261 261 248 246 247 244 245 244 242 243 245 247 248 250 249 248 247 246 247 248 250 250 250 250 250 249 248 249 247 246 246 247 248 247 242 242 244 249 252 256 258 258 251
328 319 314 303 289 272 262 256 248 246 248 250 248 246 242 241 241 242 243 244 245 245 245 247 247 247 248 249 249 250 251 250 248 248 248 249 248 247 246 247 248 247 248 249 248 255 254 252 257
331 321 318 306 292 273 261 260 251 251 249 250 247 249 245 241 241 240 242 243 243 244 244 244 246 247 248 250 250 250 250 250 250 250 249 248 248 247 246 246 247 247 249 251 253 251 251 252 252
331 323 319 306 294 281 259 258 260 253 252 249 246 245 244 242 240 239 241 243 244 247 248 247 248 249 249 249 251 251 251 251 251 250 250 249 249 249 248 248 249 249 249 250 252 251 246 246 248
330 326 318 305 297 291 268 261 254 253 247 247 249 245 246 244 240 238 240 241 242 242 245 247 248 249 249 249 250 251 250 251 251 251 250 250 250 250 249 249 249 250 250 250 250 248 248 250 248
330 327 317 305 295 284 267 258 253 249 256 256 252 252 248 246 246 241 239 239 240 242 243 243 242 243 244 246 248 250 250 250 251 252 252 252 251 250 250 250 249 249 249 250 249 249 248 249 251
Height
10902 10907 10912 10916 10920 10916 10914 10921 10929 10931 10938 10942 10948 10955 10957 10953 10956 10957 10959 10959 10961 10962 10962 10963 10965 10966 10968 10970 10971 10972 10972 10972 10972 10972 10971 10971 10971 10971 10970 10969 10968 10967 10966 10965 10964 10962 10960 10959 10956
10894 10898 10902 10908 10913 10911 10906 10916 10922 10921 10931 10937 10941 10947 10953 10953 10951 10951 10954 10956 10957 10959 10959 10959 10960 10962 10963 10965 10966 10968 10969 10968 10969 10969 10968 10967 10968 10968 10967 10966 10965 10964 10962 10960 10959 10958 10956 10955 10953
10886 10890 10896 10901 10904 10901 10904 10901 10910 10908 10921 10929 10932 10937 10944 10949 10949 10947 10947 10948 10953 10955 10956 10956 10956 10957 10959 10960 10961 10962 10963 10964 10964 10965 10965 10964 10964 10965 10965 10963 10961 10960 10958 10956 10955 10954 10953 10953 10951
10874 10881 10887 10894 10895 10890 10894 10891 10894 10900 10913 10919 10925 10929 10934 10941 10944 10942 10942 10942 10944 10948 10951 10952 10953 10954 10954 10955 10955 10956 10958 10959 10959 10959 10960 10960 10960 10960 10961 10960 10958 10957 10955 10953 10952 10951 10950 10949 10947
10859 10867 10878 10887 10886 10879 10880 10881 10887 10889 10899 10907 10914 10921 10925 10931 10936 10937 10935 10936 10938 10939 10942 10944 10946 10947 10948 10948 10950 10951 10952 10953 10954 10955 10955 10956 10956 10956 10955 10955 10954 10953 10951 10950 10948 10946 10946 10945 10943
10848 10857 10868 10876 10872 10867 10868 10869 10876 10879 10883 10892 10901 10913 10917 10922 10926 10929 10929 10927 10930 10931 10933 10936 10938 10940 10940 10941 10942 10944 10945 10945 10947 10948 10950 10951 10951 10951 10951 10950 10949 10948 10947 10945 10943 10942 10941 10940 10938
10836 10843 10855 10861 10862 10862 10849 10855 10863 10866 10870 10877 10888 10896 10908 10912 10914 10916 10920 10921 10922 10925 10925 10928 10931 10933 10933 10933 10934 10935 10937 10938 10938 10940 10942 10944 10945 10946 10946 10945 10944 10943 10942 10939 10938 10937 10937 10936 10933
10818 10831 10842 10850 10849 10849 10830 10832 10850 10853 10861 10862 10872 10882 10891 10905 10907 10907 10909 10912 10912 10917 10920 10920 10923 10925 10927 10928 10929 10929 10930 10932 10933 10934 10935 10936 10937 10939 10938 10938 10938 10938 10936 10933 10931 10930 10931 10932 10929
10809 10827 10833 10828 10826 10823 10806 10820 10831 10838 10851 10851 10863 10867 10875 10889 10897 10899 10898 10902 10901 10902 10911 10915 10916 10917 10921 10921 10922 10923 10922 10924 10925 10925 10928 10929 10930 10931 10931 10930 10930 10930 10929 10926 10923 10923 10924 10925 10925
10795 10809 10811 10804 10810 10813 10797 10809 10808 10822 10836 10847 10842 10855 10853 10868 10878 10886 10892 10892 10890 10888 10895 10903 10909 10910 10912 10913 10915 10916 10916 10916 10917 10919 10921 10922 10923 10925 10925 10924 10923 10923 10922 10919 10917 10916 10916 10917 10919
10778 10792 10788 10790 10792 10797 10790 10795 10785 10806 10824 10826 10830 10832 10840 10848 10860 10869 10873 10881 10883 10879 10880 10885 10890 10896 10901 10901 10903 10905 10908 10908 10909 10910 10912 10915 10916 10917 10918 10917 10917 10916 10916 10913 10911 10909 10908 10910 10911
10764 10771 10773 10767 10773 10778 10775 10763 10775 10787 10807 10803 10811 10812 10819 10829 10839 10848 10857 10865 10874 10870 10865 10870 10874 10879 10884 10889 10891 10895 10897 10898 10901 10901 10903 10904 10907 10909 10909 10910 10910 10910 10909 10907 10904 10902 10900 10902 10904
10737 10739 10748 10748 10750 10756 10754 10750 10750 10772 10777 10775 10789 10789 10798 10808 10821 10833 10841 10847 10854 10855 10851 10849 10856 10862 10868 10872 10877 10882 10884 10887 10891 10892 10894 10894 10896 10899 10901 10902 10901 10901 10900 10899 10897 10895 10893 10893 10893
10721 10723 10729 10733 10730 10731 10733 10733 10734 10753 10743 10750 10757 10769 10773 10787 10802 10811 10823 10827 10830 10837 10837 10837 10835 10842 10850 10857 10862 10866 10871 10876 10879 10883 10882 10884 10885 10888 10890 10892 10891 10890 10890 10889 10888 10887 10884 10883 10882
10698 10705 10708 10711 10709 10706 10704 10719 10731 10713 10714 10726 10735 10746 10750 10765 10774 10793 10802 10811 10812 10817 10822 10823 10821 10821 10834 10840 10846 10853 10857 10863 10868 10870 10872 10872 10873 10875 10878 10881 10881 10881 10880 10879 10878 10877 10875 10874 10872
10681 10686 10688 10684 10683 10679 10676 10714 10711 10697 10689 10704 10715 10724 10732 10740 10752 10771 10780 10793 10797 10800 10803 10804 10805 10809 10815 10822 10830 10836 10843 10849 10853 10856 10859 10860 10859 10861 10865 10868 10870 10871 10871 10868 10868 10866 10864 10864 10864
10663 10672 10675 10669 10662 10658 10660 10700 10695 10679 10672 10681 10696 10708 10716 10725 10730 10739 10756 10766 10774 10777 10781 10785 10788 10795 10795 10802 10813 10822 10830 10833 10836 10841 10846 10846 10844 10847 10850 10853 10857 10861 10862 10860 10857 10857 10854 10852 10853
10646 10651 10654 10653 10635 10636 10645 10678 10672 10659 10652 10663 10671 10679 10688 10697 10708 10705 10719 10736 10744 10749 10755 10765 10769 10773 10778 10783 10793 10806 10814 10815 10821 10822 10828 10827 10828 10834 10837 10839 10841 10850 10851 10851 10848 10847 10844 10842 10841
10626 10627 10629 10628 10619 10613 10620 10637 10646 10637 10629 10639 10644 10645 10660 10673 10680 10685 10692 10700 10713 10721 10730 10734 10741 10746 10757 10758 10772 10782 10796 10800 10805 10800 10810 10809 10814 10820 10824 10824 10823 10832 10836 10839 10839 10837 10833 10832 10831
10611 10610 10609 10606 10594 10593 10590 10599 10618 10616 10611 10609 10616 10615 10624 10640 10649 10658 10665 10672 10684 10691 10703 10708 10715 10717 10725 10735 10746 10761 10776 10785 10790 10791 10791 10789 10795 10803 10809 10811 10812 10816 10818 10822 10825 10825 10822 10820 10820
10596 10594 10591 10589 10575 10576 10564 10563 10582 10588 10589 10581 10588 10587 10591 10605 10618 10628 10640 10655 10664 10674 10677 10680 10687 10699 10704 10716 10728 10735 10750 10762 10768 10775 10779 10782 10777 10784 10790 10795 10794 10802 10805 10805 10808 10811 10811 10811 10811
10579 10570 10572 10568 10559 10551 10533 10541 10553 10558 10551 10552 10563 10563 10566 10572 10585 10602 10621 10638 10645 10652 10653 10658 10664 10673 10679 10689 10701 10708 10720 10730 10740 10749 10758 10764 10766 10768 10773 10774 10776 10786 10788 10789 10788 10792 10796 10799 10801
10561 10553 10547 10540 10528 10518 10514 10502 10535 10518 10525 10529 10528 10535 10540 10555 10562 10577 10591 10606 10617 10621 10633 10638 10644 10649 10649 10662 10673 10681 10693 10704 10714 10721 10732 10738 10744 10748 10756 10759 10760 10768 10772 10773 10773 10774 10778 10783 10791
10542 10533 10523 10511 10501 10493 10486 10471 10508 10496 10498 10496 10495 10505 10518 10523 10534 10543 10556 10571 10587 10598 10610 10614 10620 10623 10625 10631 10643 10658 10670 10682 10690 10697 10707 10711 10717 10725 10734 10739 10743 10746 10751 10755 10755 10758 10759 10770 10775
10521 10510 10501 10490 10474 10473 10458 10466 10482 10463 10460 10466 10467 10484 10501 10506 10514 10524 10531 10545 10559 10574 10577 10578 10588 10599 10603 10610 10621 10633 10646 10659 10670 10677 10684 10690 10698 10705 10712 10715 10722 10724 10730 10736 10739 10743 10750 10754 10758
10504 10490 10475 10464 10458 10450 10445 10454 10449 10447 10443 10448 10457 10466 10476 10478 10490 10494 10501 10511 10523 10534 10545 10554 10563 10574 10580 10583 10597 10613 10624 10633 10643 10650 10657 10665 10676 10684 10688 10692 10701 10705 10708 10714 10720 10731 10736 10738 10742
10489 10471 10457 10442 10438 10437 10430 10430 10433 10428 10433 10429 10438 10445 10452 10461 10468 10472 10477 10483 10496 10506 10519 10529 10539 10548 10559 10566 10577 10593 10600 10607 10617 10625 10635 10644 10650 10658 10667 10673 10679 10685 10690 10697 10709 10716 10720 10722 10728
10469 10455 10440 10425 10420 10422 10420 10415 10412 10415 10416 10415 10416 10425 10431 10438 10448 10453 10459 10467 10481 10493 10502 10508 10515 10530 10544 10548 10552 10565 10572 10580 10591 10601 10609 10618 10626 10636 10646 10653 10659 10665 10672 10680 10690 10699 10703 10706 10711
10454 10437 10421 10410 10402 10400 10402 10400 10393 10393 10394 10398 10401 10415 10417 10422 10429 10438 10445 10451 10459 10468 10475 10488 10499 10509 10516 10521 10524 10534 10546 10555 10563 10571 10580 10591 10602 10611 10620 10630 10638 10645 10655 10663 10672 10680 10681 10689 10695
10440 10423 10406 10396 10390 10385 10385 10384 10386 10382 10388 10394 10395 10399 10402 10407 10414 10419 10425 10432 10439 10446 10457 10465 10471 10480 10486 10492 10499 10504 10515 10527 10536 10543 10554 10567 10577 10587 10596 10607 10617 10626 10635 10643 10652 10659 10663 10669 10677